Location: Detroit
(42.3310°N, 83.0460°W)
Time: 20:24:22
(UTC-04:00)

A-11 Canister half - Pass Details

Date: 09 February 2023
Orbit: 1526 x 1682 km, 47.3° (Epoch: 29 March)

Event Time Altitude Azimuth Distance (km) Brightness Sun altitude
Rises 03:33:07 0° 212° (SSW) 4,701 - -44.8°
Reaches altitude 10° 03:36:21 10° 206° (SSW) 3,706 - -44.3°
Maximum altitude 03:44:59 44° 138° (SE) 2,002 - -42.8°
Exits shadow 03:45:49 43° 124° (SE) 2,024 9.6 -42.7°
Drops below altitude 10° 03:53:36 10° 70° (ENE) 3,701 11.7 -41.3°
Sets 03:56:49 0° 64° (ENE) 4,695 12.4 -40.8°
